Regional Weather Roundup
Issued by NWS

Home | Current Version | Previous Version | Text Only | Print | Product List | Glossary Off
Versions: 1 2 3 4 5 6 7 8 9 10 11 12 13 14 15 16 17 18 19 20 21 22 23 24 25 26 27 28 29 30 31 32 33 34 35 36 37 38 39 40 41 42 43 44 45 46 47 48 49 50

000
ASUS45 KABQ 152310
RWRNM
WEATHER ROUNDUP FOR NEW MEXICO
NATIONAL WEATHER SERVICE ALBUQUERQUE NM
500 PM MDT TUE APR 15 2014

NOTE: "FAIR" MEANS FEW OR NO CLOUDS BELOW 12,000 FEET AGL WITH NO
       SIGNIFICANT WEATHER OR OBSTRUCTIONS TO VISION.

      THIS PRODUCT IS RELEASED AS TWO VERSIONS.  ONE VERSION NEAR
      THE TOP OF THE HOUR CONTAINING PRELIMINARY DATA FROM ALBUQUERQUE
      AND OTHER STATIONS.  A FINAL VERSION WITH ADDITIONAL DATA IS
      ISSUED ABOUT 10 MINUTES AFTER THE HOUR.

NMZ501-503-504-510>518-160000-
NORTHWEST PLATEAU/NORTHCENTRAL MOUNTAINS

CITY           SKY/WX    TMP DP  RH WIND       PRES   REMARKS
FARMINGTON     SUNNY     62   2   9 W10       29.95F
LOS ALAMOS     PTSUNNY   59   5  11 SW14G23   29.99F
SANTA FE       CLOUDY    61   6  11 SW17G26   29.96F
TAOS           PTSUNNY   59   9  13 W24G31    29.97F
ANGEL FIRE     FAIR      52  10  18 W12G18    29.98F

$$
NMZ402-403-502-505>509-160000-
WESTCENTRAL MOUNTAINS/SOUTHWEST MOUNTAINS

CITY           SKY/WX    TMP DP  RH WIND       PRES   REMARKS
GALLUP         CLOUDY    65  -8   5 W18G26    29.99F
GRANTS         PTSUNNY   66  -2   6 W17       29.98F
SILVER CITY    MOSUNNY   64   7  10 S6        30.05F

$$
NMZ407-409-411-412-160000-
SOUTHERN DESERTS

CITY           SKY/WX    TMP DP  RH WIND       PRES   REMARKS
LORDSBURG      FAIR      72  12  10 E12G20    29.96F
DEMING         SUNNY     71   9   9 S10       29.98F
LAS CRUCES     MOSUNNY   69   9   9 S10       30.02F
HOLLOMAN AFB   SUNNY     67   7   9 S10G20    29.99F
ALAMOGORDO     MOSUNNY   66  10  11 S9        30.01F
T OR C         PTSUNNY   65   9  11 S18G29    29.96F

$$
NMZ519>523-160000-
CENTRAL VALLEYS/CENTRAL HIGHLANDS

CITY           SKY/WX    TMP DP  RH WIND       PRES   REMARKS
ALBUQUERQUE    PTSUNNY   66  11  11 S13G21    29.94F
DOUBLE EAGLE   PTSUNNY   64   9  11 SW8       29.96F
MORIARTY ARPT  FAIR      63   8  11 W16       29.98F
CLINES CORNERS PTSUNNY   59   5  11 W25G32    29.98F
BELEN          FAIR      68  17  14 S17G23    29.94F
SOCORRO        FAIR      70  13  11 S23G30    29.94F

$$
NMZ524>526-539-540-160000-
SOUTHCENTRAL MOUNTAINS

CITY           SKY/WX    TMP DP  RH WIND       PRES   REMARKS
RUIDOSO        SUNNY     59   7  12 SW12G18   30.05F

$$
NMZ527>531-160000-
NORTHEAST HIGHLANDS/NORTHEAST PLAINS

CITY           SKY/WX    TMP DP  RH WIND       PRES   REMARKS
LAS VEGAS      PTSUNNY   62  10  13 W26G33    29.92S
RATON          PTSUNNY   66  15  14 S21G28    29.83F
CLAYTON        MOSUNNY   65  16  15 S24       29.85F

$$
NMZ532>537-160000-
EASTCENTRAL PLAINS

CITY           SKY/WX    TMP DP  RH WIND       PRES   REMARKS
TUCUMCARI      SUNNY     70  15  12 S30G37    29.85F
CANNON AFB     SUNNY     65   5   9 SW29G35   29.94F
CLOVIS AIRPORT SUNNY     66  10  11 SW23G32   29.97F

$$
NMZ028-029-538-160000-
SOUTHEAST PLAINS

CITY           SKY/WX    TMP DP  RH WIND       PRES   REMARKS
ROSWELL        SUNNY     71   6   8 S22G30    29.94F
ARTESIA        SUNNY     70   9   9 SW21G26   29.96F
CARLSBAD       SUNNY     71   4   7 SE17      29.97F
HOBBS          SUNNY     64   7  10 S16G26    30.04F


$$



USA.gov is the U.S. government's official web portal to all federal, state and local government web resources and services.